Time,TemperatureF,DewpointF,PressureIn,WindDirection,WindDirectionDegrees,WindSpeedMPH,WindSpeedGustMPH,Humidity,HourlyPrecipIn,Conditions,Clouds,dailyrainin,SoftwareType,DateUTC
2013-12-25 00:00:00,23.0,10.4,30.16,East,90,1.0,-999.0,58,0.00,,,0.00,Wunderground v.1.15,2013-12-25 05:00:00,
2013-12-25 00:05:00,23.0,10.4,30.16,East,90,1.0,-999.0,58,0.00,,,0.00,Wunderground v.1.15,2013-12-25 05:05:00,
2013-12-25 00:10:00,23.0,9.2,30.16,ESE,113,1.0,-999.0,55,0.00,,,0.00,Wunderground v.1.15,2013-12-25 05:10:00,
2013-12-25 00:15:00,22.9,9.1,30.16,SE,135,1.0,-999.0,55,0.00,,,0.00,Wunderground v.1.15,2013-12-25 05:15:00,
2013-12-25 00:20:00,22.9,9.9,30.16,SSE,158,0.0,-999.0,57,0.00,,,0.00,Wunderground v.1.15,2013-12-25 05:20:00,
2013-12-25 00:25:00,22.7,10.1,30.16,ENE,68,0.0,-999.0,58,0.00,,,0.00,Wunderground v.1.15,2013-12-25 05:25:00,
2013-12-25 00:30:00,22.7,11.6,30.17,WSW,248,0.0,-999.0,62,0.00,,,0.00,Wunderground v.1.15,2013-12-25 05:30:00,
2013-12-25 00:35:00,22.5,11.4,30.17,NW,315,0.0,-999.0,62,0.00,,,0.00,Wunderground v.1.15,2013-12-25 05:35:00,
2013-12-25 00:40:00,22.5,11.8,30.17,North,0,0.0,-999.0,63,0.00,,,0.00,Wunderground v.1.15,2013-12-25 05:40:00,
2013-12-25 00:45:00,22.2,11.5,30.17,North,0,0.0,-999.0,63,0.00,,,0.00,Wunderground v.1.15,2013-12-25 05:45:00,
2013-12-25 00:50:00,22.2,12.2,30.17,N/A,-737280,0.0,-999.0,65,0.00,,,0.00,Wunderground v.1.15,2013-12-25 05:50:00,
2013-12-25 00:55:00,21.9,11.9,30.17,East,90,0.0,-999.0,65,0.00,,,0.00,Wunderground v.1.15,2013-12-25 05:55:00,
2013-12-25 01:00:00,21.8,12.5,30.18,N/A,-737280,0.0,-999.0,67,0.00,,,0.00,Wunderground v.1.15,2013-12-25 06:00:00,
2013-12-25 01:05:00,21.8,11.8,30.18,ESE,113,0.0,-999.0,65,0.00,,,0.00,Wunderground v.1.15,2013-12-25 06:05:00,
2013-12-25 01:10:00,21.6,11.6,30.18,SW,225,0.0,-999.0,65,0.00,,,0.00,Wunderground v.1.15,2013-12-25 06:10:00,
2013-12-25 01:15:00,21.4,10.7,30.18,NE,45,0.0,-999.0,63,0.00,,,0.00,Wunderground v.1.15,2013-12-25 06:15:00,
2013-12-25 01:20:00,21.3,9.6,30.18,North,0,0.0,-999.0,60,0.00,,,0.00,Wunderground v.1.15,2013-12-25 06:20:00,
2013-12-25 01:25:00,21.0,8.9,30.18,WSW,248,0.0,-999.0,59,0.00,,,0.00,Wunderground v.1.15,2013-12-25 06:25:00,
2013-12-25 01:30:00,20.8,8.3,30.18,NNW,338,0.0,-999.0,58,0.00,,,0.00,Wunderground v.1.15,2013-12-25 06:30:00,
2013-12-25 01:35:00,20.6,8.5,30.18,N/A,-737280,0.0,-999.0,59,0.00,,,0.00,Wunderground v.1.15,2013-12-25 06:35:00,
2013-12-25 01:40:00,20.5,8.8,30.18,N/A,-737280,0.0,-999.0,60,0.00,,,0.00,Wunderground v.1.15,2013-12-25 06:40:00,
2013-12-25 01:45:00,20.3,9.0,30.19,SSE,158,0.0,-999.0,61,0.00,,,0.00,Wunderground v.1.15,2013-12-25 06:45:00,
2013-12-25 01:50:00,20.2,8.1,30.19,South,180,0.0,-999.0,59,0.00,,,0.00,Wunderground v.1.15,2013-12-25 06:50:00,
2013-12-25 01:55:00,20.2,8.1,30.19,N/A,-737280,0.0,-999.0,59,0.00,,,0.00,Wunderground v.1.15,2013-12-25 06:55:00,
2013-12-25 02:00:00,20.0,8.3,30.21,SSW,203,0.0,-999.0,60,0.00,,,0.00,Wunderground v.1.15,2013-12-25 07:00:00,
2013-12-25 02:05:00,20.0,8.7,30.21,SE,135,0.0,-999.0,61,0.00,,,0.00,Wunderground v.1.15,2013-12-25 07:05:00,
2013-12-25 02:10:00,19.9,8.6,30.21,NE,45,0.0,-999.0,61,0.00,,,0.00,Wunderground v.1.15,2013-12-25 07:10:00,
2013-12-25 02:15:00,19.7,9.5,30.21,South,180,0.0,-999.0,64,0.00,,,0.00,Wunderground v.1.15,2013-12-25 07:15:00,
2013-12-25 02:20:00,19.4,9.5,30.21,ESE,113,0.0,-999.0,65,0.00,,,0.00,Wunderground v.1.15,2013-12-25 07:20:00,
2013-12-25 02:25:00,18.9,9.1,30.21,ESE,113,0.0,-999.0,65,0.00,,,0.00,Wunderground v.1.15,2013-12-25 07:25:00,
2013-12-25 02:30:00,18.6,8.8,30.22,NW,315,1.0,-999.0,65,0.00,,,0.00,Wunderground v.1.15,2013-12-25 07:30:00,
2013-12-25 02:35:00,18.1,8.6,30.22,SSE,158,0.0,-999.0,66,0.00,,,0.00,Wunderground v.1.15,2013-12-25 07:35:00,
2013-12-25 02:40:00,17.8,8.4,30.22,North,0,0.0,-999.0,66,0.00,,,0.00,Wunderground v.1.15,2013-12-25 07:40:00,
2013-12-25 02:45:00,17.7,7.9,30.24,ESE,113,0.0,-999.0,65,0.00,,,0.00,Wunderground v.1.15,2013-12-25 07:45:00,
2013-12-25 02:50:00,17.3,7.5,30.24,SE,135,0.0,-999.0,65,0.00,,,0.00,Wunderground v.1.15,2013-12-25 07:50:00,
2013-12-25 02:55:00,17.3,7.9,30.24,SE,135,0.0,-999.0,66,0.00,,,0.00,Wunderground v.1.15,2013-12-25 07:55:00,
2013-12-25 03:00:00,17.2,7.8,30.25,East,90,0.0,-999.0,66,0.00,,,0.00,Wunderground v.1.15,2013-12-25 08:00:00,
2013-12-25 03:05:00,16.7,6.6,30.25,ENE,68,0.0,-999.0,64,0.00,,,0.00,Wunderground v.1.15,2013-12-25 08:05:00,
2013-12-25 03:10:00,16.5,6.1,30.25,SSE,158,0.0,-999.0,63,0.00,,,0.00,Wunderground v.1.15,2013-12-25 08:10:00,
2013-12-25 03:15:00,16.2,5.5,30.26,SE,135,1.0,-999.0,62,0.00,,,0.00,Wunderground v.1.15,2013-12-25 08:15:00,
2013-12-25 03:20:00,15.6,4.9,30.26,North,0,1.0,-999.0,62,0.00,,,0.00,Wunderground v.1.15,2013-12-25 08:20:00,
2013-12-25 03:25:00,15.2,4.1,30.26,NE,45,0.0,-999.0,61,0.00,,,0.00,Wunderground v.1.15,2013-12-25 08:25:00,
2013-12-25 03:30:00,14.9,3.5,30.26,ENE,68,0.0,-999.0,60,0.00,,,0.00,Wunderground v.1.15,2013-12-25 08:30:00,
2013-12-25 03:35:00,14.8,3.4,30.26,SSW,203,0.0,-999.0,60,0.00,,,0.00,Wunderground v.1.15,2013-12-25 08:35:00,
2013-12-25 03:40:00,14.4,3.0,30.26,East,90,0.0,-999.0,60,0.00,,,0.00,Wunderground v.1.15,2013-12-25 08:40:00,
2013-12-25 03:45:00,14.3,3.3,30.27,NW,315,0.0,-999.0,61,0.00,,,0.00,Wunderground v.1.15,2013-12-25 08:45:00,
2013-12-25 03:50:00,14.3,3.3,30.27,East,90,0.0,-999.0,61,0.00,,,0.00,Wunderground v.1.15,2013-12-25 08:50:00,
2013-12-25 03:55:00,13.8,2.5,30.27,ESE,113,0.0,-999.0,60,0.00,,,0.00,Wunderground v.1.15,2013-12-25 08:55:00,
2013-12-25 04:00:00,13.6,2.3,30.28,East,90,0.0,-999.0,60,0.00,,,0.00,Wunderground v.1.15,2013-12-25 09:00:00,
2013-12-25 04:05:00,13.5,2.5,30.28,ESE,113,0.0,-999.0,61,0.00,,,0.00,Wunderground v.1.15,2013-12-25 09:05:00,
2013-12-25 04:10:00,13.5,2.5,30.28,SE,135,0.0,-999.0,61,0.00,,,0.00,Wunderground v.1.15,2013-12-25 09:10:00,
2013-12-25 04:15:00,13.3,2.3,30.29,South,180,1.0,-999.0,61,0.00,,,0.00,Wunderground v.1.15,2013-12-25 09:15:00,
2013-12-25 04:20:00,13.1,1.8,30.29,East,90,1.0,-999.0,60,0.00,,,0.00,Wunderground v.1.15,2013-12-25 09:20:00,
2013-12-25 04:25:00,12.9,1.2,30.29,East,90,0.0,-999.0,59,0.00,,,0.00,Wunderground v.1.15,2013-12-25 09:25:00,
2013-12-25 04:30:00,12.8,1.5,30.30,ENE,68,0.0,-999.0,60,0.00,,,0.00,Wunderground v.1.15,2013-12-25 09:30:00,
2013-12-25 04:35:00,12.8,1.2,30.30,ENE,68,0.0,-999.0,59,0.00,,,0.00,Wunderground v.1.15,2013-12-25 09:35:00,
2013-12-25 04:40:00,12.6,1.0,30.30,WSW,248,1.0,-999.0,59,0.00,,,0.00,Wunderground v.1.15,2013-12-25 09:40:00,
2013-12-25 04:45:00,12.4,1.1,30.31,WNW,293,0.0,-999.0,60,0.00,,,0.00,Wunderground v.1.15,2013-12-25 09:45:00,
2013-12-25 04:50:00,12.3,0.7,30.31,NE,45,0.0,-999.0,59,0.00,,,0.00,Wunderground v.1.15,2013-12-25 09:50:00,
2013-12-25 04:55:00,12.1,0.1,30.31,ENE,68,1.0,-999.0,58,0.00,,,0.00,Wunderground v.1.15,2013-12-25 09:55:00,
2013-12-25 05:00:00,12.1,0.1,30.31,NW,315,1.0,-999.0,58,0.00,,,0.00,Wunderground v.1.15,2013-12-25 10:00:00,
2013-12-25 05:05:00,11.9,-0.1,30.31,ESE,113,0.0,-999.0,58,0.00,,,0.00,Wunderground v.1.15,2013-12-25 10:05:00,
2013-12-25 05:10:00,11.7,-0.3,30.31,ESE,113,1.0,-999.0,58,0.00,,,0.00,Wunderground v.1.15,2013-12-25 10:10:00,
2013-12-25 05:15:00,11.6,-0.3,30.32,NE,45,0.0,-999.0,58,0.00,,,0.00,Wunderground v.1.15,2013-12-25 10:15:00,
2013-12-25 05:20:00,11.6,-0.3,30.32,ESE,113,1.0,-999.0,58,0.00,,,0.00,Wunderground v.1.15,2013-12-25 10:20:00,
2013-12-25 05:25:00,11.4,-0.5,30.32,ENE,68,1.0,-999.0,58,0.00,,,0.00,Wunderground v.1.15,2013-12-25 10:25:00,
2013-12-25 05:30:00,-999.9,-99.9,30.33,N/A,-737280,0.0,-999.0,58,0.00,,,0.00,Wunderground v.1.15,2013-12-25 10:30:00,
2013-12-25 05:35:00,11.2,-0.4,30.33,NE,45,0.0,-999.0,59,0.00,,,0.00,Wunderground v.1.15,2013-12-25 10:35:00,
2013-12-25 05:40:00,11.1,-0.8,30.33,North,0,1.0,-999.0,58,0.00,,,0.00,Wunderground v.1.15,2013-12-25 10:40:00,
2013-12-25 05:45:00,10.9,-1.7,30.33,ESE,113,1.0,-999.0,56,0.00,,,0.00,Wunderground v.1.15,2013-12-25 10:45:00,
2013-12-25 05:50:00,10.7,-1.6,30.33,NW,315,1.0,-999.0,57,0.00,,,0.00,Wunderground v.1.15,2013-12-25 10:50:00,
2013-12-25 05:55:00,10.7,-0.8,30.33,SW,225,2.0,-999.0,59,0.00,,,0.00,Wunderground v.1.15,2013-12-25 10:55:00,
2013-12-25 06:00:00,10.5,-2.1,30.33,North,0,1.0,-999.0,56,0.00,,,0.00,Wunderground v.1.15,2013-12-25 11:00:00,
2013-12-25 06:05:00,10.5,-2.1,30.33,SSE,158,0.0,-999.0,56,0.00,,,0.00,Wunderground v.1.15,2013-12-25 11:05:00,
2013-12-25 06:10:00,10.4,-2.6,30.33,SSE,158,0.0,-999.0,55,0.00,,,0.00,Wunderground v.1.15,2013-12-25 11:10:00,
2013-12-25 06:15:00,10.2,-2.8,30.35,NNE,23,1.0,-999.0,55,0.00,,,0.00,Wunderground v.1.15,2013-12-25 11:15:00,
2013-12-25 06:20:00,10.2,-2.4,30.35,WSW,248,0.0,-999.0,56,0.00,,,0.00,Wunderground v.1.15,2013-12-25 11:20:00,
2013-12-25 06:25:00,10.0,-2.2,30.35,West,270,0.0,-999.0,57,0.00,,,0.00,Wunderground v.1.15,2013-12-25 11:25:00,
2013-12-25 06:30:00,9.9,-3.1,30.36,ESE,113,1.0,-999.0,55,0.00,,,0.00,Wunderground v.1.15,2013-12-25 11:30:00,
2013-12-25 06:35:00,9.9,-1.6,30.36,NW,315,0.0,-999.0,59,0.00,,,0.00,Wunderground v.1.15,2013-12-25 11:35:00,
2013-12-25 06:40:00,9.7,-1.4,30.36,NW,315,0.0,-999.0,60,0.00,,,0.00,Wunderground v.1.15,2013-12-25 11:40:00,
2013-12-25 06:45:00,9.7,-1.8,30.36,SW,225,1.0,-999.0,59,0.00,,,0.00,Wunderground v.1.15,2013-12-25 11:45:00,
2013-12-25 06:50:00,9.5,-2.3,30.36,WNW,293,1.0,-999.0,58,0.00,,,0.00,Wunderground v.1.15,2013-12-25 11:50:00,
2013-12-25 06:55:00,9.3,-3.3,30.36,NE,45,0.0,-999.0,56,0.00,,,0.00,Wunderground v.1.15,2013-12-25 11:55:00,
2013-12-25 07:00:00,9.2,-3.0,30.38,West,270,1.0,-999.0,57,0.00,,,0.00,Wunderground v.1.15,2013-12-25 12:00:00,
2013-12-25 07:05:00,9.0,-3.9,30.38,NE,45,1.0,-999.0,55,0.00,,,0.00,Wunderground v.1.15,2013-12-25 12:05:00,
2013-12-25 07:10:00,9.0,-3.5,30.38,ENE,68,1.0,-999.0,56,0.00,,,0.00,Wunderground v.1.15,2013-12-25 12:10:00,
2013-12-25 07:15:00,9.0,-3.5,30.40,SSE,158,0.0,-999.0,56,0.00,,,0.00,Wunderground v.1.15,2013-12-25 12:15:00,
2013-12-25 07:20:00,8.8,-3.0,30.40,ESE,113,1.0,-999.0,58,0.00,,,0.00,Wunderground v.1.15,2013-12-25 12:20:00,
2013-12-25 07:25:00,8.8,-3.4,30.40,NNE,23,0.0,-999.0,57,0.00,,,0.00,Wunderground v.1.15,2013-12-25 12:25:00,
2013-12-25 07:30:00,8.8,-3.4,30.40,ENE,68,0.0,-999.0,57,0.00,,,0.00,Wunderground v.1.15,2013-12-25 12:30:00,
2013-12-25 07:35:00,8.8,-3.0,30.40,ESE,113,0.0,-999.0,58,0.00,,,0.00,Wunderground v.1.15,2013-12-25 12:35:00,
2013-12-25 07:40:00,8.8,-3.0,30.40,East,90,1.0,-999.0,58,0.00,,,0.00,Wunderground v.1.15,2013-12-25 12:40:00,
2013-12-25 07:45:00,8.8,-3.0,30.40,NW,315,1.0,-999.0,58,0.00,,,0.00,Wunderground v.1.15,2013-12-25 12:45:00,
2013-12-25 07:50:00,8.8,-3.0,30.40,SE,135,0.0,-999.0,58,0.00,,,0.00,Wunderground v.1.15,2013-12-25 12:50:00,
2013-12-25 07:55:00,8.8,-3.4,30.40,NNW,338,0.0,-999.0,57,0.00,,,0.00,Wunderground v.1.15,2013-12-25 12:55:00,
2013-12-25 08:00:00,8.8,-2.6,30.41,NE,45,0.0,-999.0,59,0.00,,,0.00,Wunderground v.1.15,2013-12-25 13:00:00,
2013-12-25 08:05:00,8.8,-3.4,30.41,ENE,68,1.0,-999.0,57,0.00,,,0.00,Wunderground v.1.15,2013-12-25 13:05:00,
2013-12-25 08:10:00,9.0,-2.8,30.41,SE,135,0.0,-999.0,58,0.00,,,0.00,Wunderground v.1.15,2013-12-25 13:10:00,
2013-12-25 08:15:00,9.0,-3.2,30.41,SE,135,0.0,-999.0,57,0.00,,,0.00,Wunderground v.1.15,2013-12-25 13:15:00,
2013-12-25 08:20:00,9.0,-3.5,30.41,SE,135,0.0,-999.0,56,0.00,,,0.00,Wunderground v.1.15,2013-12-25 13:20:00,
2013-12-25 08:25:00,9.0,-3.5,30.41,East,90,0.0,-999.0,56,0.00,,,0.00,Wunderground v.1.15,2013-12-25 13:25:00,
2013-12-25 08:30:00,9.2,-3.3,30.42,East,90,1.0,-999.0,56,0.00,,,0.00,Wunderground v.1.15,2013-12-25 13:30:00,
2013-12-25 08:35:00,9.2,-3.7,30.42,N/A,-737280,0.0,-999.0,55,0.00,,,0.00,Wunderground v.1.15,2013-12-25 13:35:00,
2013-12-25 08:40:00,9.3,-3.6,30.42,N/A,-737280,0.0,-999.0,55,0.00,,,0.00,Wunderground v.1.15,2013-12-25 13:40:00,
2013-12-25 08:45:00,9.3,-3.3,30.43,SSE,158,1.0,-999.0,56,0.00,,,0.00,Wunderground v.1.15,2013-12-25 13:45:00,
2013-12-25 08:50:00,9.5,-3.1,30.43,East,90,0.0,-999.0,56,0.00,,,0.00,Wunderground v.1.15,2013-12-25 13:50:00,
2013-12-25 08:55:00,9.7,-2.9,30.43,East,90,0.0,-999.0,56,0.00,,,0.00,Wunderground v.1.15,2013-12-25 13:55:00,
2013-12-25 09:00:00,9.7,-2.9,30.43,ENE,68,1.0,-999.0,56,0.00,,,0.00,Wunderground v.1.15,2013-12-25 14:00:00,
2013-12-25 09:05:00,9.9,-3.1,30.43,ENE,68,0.0,-999.0,55,0.00,,,0.00,Wunderground v.1.15,2013-12-25 14:05:00,
2013-12-25 09:10:00,10.0,-2.6,30.43,NW,315,0.0,-999.0,56,0.00,,,0.00,Wunderground v.1.15,2013-12-25 14:10:00,
2013-12-25 09:15:00,10.2,-3.6,30.45,East,90,1.0,-999.0,53,0.00,,,0.00,Wunderground v.1.15,2013-12-25 14:15:00,
2013-12-25 09:20:00,10.2,-3.6,30.45,SE,135,1.0,-999.0,53,0.00,,,0.00,Wunderground v.1.15,2013-12-25 14:20:00,
2013-12-25 09:25:00,10.4,-3.4,30.45,ESE,113,0.0,-999.0,53,0.00,,,0.00,Wunderground v.1.15,2013-12-25 14:25:00,
2013-12-25 09:30:00,10.7,-2.3,30.45,NW,315,0.0,-999.0,55,0.00,,,0.00,Wunderground v.1.15,2013-12-25 14:30:00,
2013-12-25 09:35:00,10.7,-2.7,30.45,N/A,-737280,0.0,-999.0,54,0.00,,,0.00,Wunderground v.1.15,2013-12-25 14:35:00,
2013-12-25 09:40:00,10.9,-2.5,30.45,SW,225,0.0,-999.0,54,0.00,,,0.00,Wunderground v.1.15,2013-12-25 14:40:00,
2013-12-25 09:45:00,-999.9,-99.9,30.46,SE,135,1.0,-999.0,54,0.00,,,0.00,Wunderground v.1.15,2013-12-25 14:45:00,
2013-12-25 09:50:00,-999.9,-99.9,30.46,SE,135,0.0,-999.0,54,0.00,,,0.00,Wunderground v.1.15,2013-12-25 14:50:00,
2013-12-25 09:55:00,11.6,-1.9,30.46,ESE,113,1.0,-999.0,54,0.00,,,0.00,Wunderground v.1.15,2013-12-25 14:55:00,
2013-12-25 10:00:00,11.9,-2.0,30.46,East,90,0.0,-999.0,53,0.00,,,0.00,Wunderground v.1.15,2013-12-25 15:00:00,
2013-12-25 10:05:00,12.1,-1.8,30.46,SE,135,0.0,-999.0,53,0.00,,,0.00,Wunderground v.1.15,2013-12-25 15:05:00,
2013-12-25 10:10:00,-999.9,-99.9,30.46,N/A,-737280,0.0,-999.0,53,0.00,,,0.00,Wunderground v.1.15,2013-12-25 15:10:00,
2013-12-25 10:15:00,-999.9,-99.9,30.46,North,0,0.0,-999.0,51,0.00,,,0.00,Wunderground v.1.15,2013-12-25 15:15:00,
2013-12-25 10:20:00,12.8,-1.9,30.46,SE,135,1.0,-999.0,51,0.00,,,0.00,Wunderground v.1.15,2013-12-25 15:20:00,
2013-12-25 10:25:00,12.9,-1.9,30.46,SE,135,0.0,-999.0,51,0.00,,,0.00,Wunderground v.1.15,2013-12-25 15:25:00,
2013-12-25 10:30:00,13.1,-1.7,30.46,SE,135,0.0,-999.0,51,0.00,,,0.00,Wunderground v.1.15,2013-12-25 15:30:00,
2013-12-25 10:35:00,13.3,-1.5,30.46,SE,135,0.0,-999.0,51,0.00,,,0.00,Wunderground v.1.15,2013-12-25 15:35:00,
2013-12-25 10:40:00,13.6,-0.4,30.46,ESE,113,0.0,-999.0,53,0.00,,,0.00,Wunderground v.1.15,2013-12-25 15:40:00,
2013-12-25 10:45:00,13.8,-1.4,30.45,ESE,113,0.0,-999.0,50,0.00,,,0.00,Wunderground v.1.15,2013-12-25 15:45:00,
2013-12-25 10:50:00,14.0,-1.3,30.45,WSW,248,1.0,-999.0,50,0.00,,,0.00,Wunderground v.1.15,2013-12-25 15:50:00,
2013-12-25 10:55:00,14.0,-1.3,30.45,WSW,248,0.0,-999.0,50,0.00,,,0.00,Wunderground v.1.15,2013-12-25 15:55:00,
2013-12-25 11:00:00,14.1,-1.6,30.44,WNW,293,0.0,-999.0,49,0.00,,,0.00,Wunderground v.1.15,2013-12-25 16:00:00,
2013-12-25 11:05:00,14.4,-0.9,30.44,East,90,0.0,-999.0,50,0.00,,,0.00,Wunderground v.1.15,2013-12-25 16:05:00,
2013-12-25 11:10:00,14.8,-0.5,30.44,NE,45,0.0,-999.0,50,0.00,,,0.00,Wunderground v.1.15,2013-12-25 16:10:00,
2013-12-25 11:15:00,14.9,-0.8,30.44,NE,45,0.0,-999.0,49,0.00,,,0.00,Wunderground v.1.15,2013-12-25 16:15:00,
2013-12-25 11:20:00,15.1,-0.2,30.44,NE,45,1.0,-999.0,50,0.00,,,0.00,Wunderground v.1.15,2013-12-25 16:20:00,
2013-12-25 11:25:00,15.4,0.0,30.44,N/A,-737280,0.0,-999.0,50,0.00,,,0.00,Wunderground v.1.15,2013-12-25 16:25:00,
2013-12-25 11:30:00,15.7,-0.1,30.44,East,90,0.0,-999.0,49,0.00,,,0.00,Wunderground v.1.15,2013-12-25 16:30:00,
2013-12-25 11:35:00,16.1,-0.2,30.44,ENE,68,0.0,-999.0,48,0.00,,,0.00,Wunderground v.1.15,2013-12-25 16:35:00,
2013-12-25 11:40:00,16.4,1.0,30.44,North,0,0.0,-999.0,50,0.00,,,0.00,Wunderground v.1.15,2013-12-25 16:40:00,
2013-12-25 11:45:00,16.7,0.4,30.44,ESE,113,1.0,-999.0,48,0.00,,,0.00,Wunderground v.1.15,2013-12-25 16:45:00,
2013-12-25 11:50:00,16.9,-0.8,30.44,East,90,1.0,-999.0,45,0.00,,,0.00,Wunderground v.1.15,2013-12-25 16:50:00,
2013-12-25 11:55:00,17.2,0.8,30.44,NNE,23,0.0,-999.0,48,0.00,,,0.00,Wunderground v.1.15,2013-12-25 16:55:00,
2013-12-25 12:00:00,17.5,1.1,30.43,NNE,23,0.0,-999.0,48,0.00,,,0.00,Wunderground v.1.15,2013-12-25 17:00:00,
2013-12-25 12:05:00,17.8,0.9,30.43,WNW,293,0.0,-999.0,47,0.00,,,0.00,Wunderground v.1.15,2013-12-25 17:05:00,
2013-12-25 12:10:00,18.1,2.1,30.43,ENE,68,0.0,-999.0,49,0.00,,,0.00,Wunderground v.1.15,2013-12-25 17:10:00,
2013-12-25 12:15:00,18.1,2.1,30.43,NE,45,0.0,-999.0,49,0.00,,,0.00,Wunderground v.1.15,2013-12-25 17:15:00,
2013-12-25 12:20:00,18.4,2.4,30.43,North,0,0.0,-999.0,49,0.00,,,0.00,Wunderground v.1.15,2013-12-25 17:20:00,
2013-12-25 12:25:00,18.6,2.6,30.43,North,0,1.0,-999.0,49,0.00,,,0.00,Wunderground v.1.15,2013-12-25 17:25:00,
2013-12-25 12:30:00,-999.9,-99.9,30.43,NE,45,1.0,-999.0,49,0.00,,,0.00,Wunderground v.1.15,2013-12-25 17:30:00,
2013-12-25 12:35:00,19.1,1.7,30.43,ESE,113,0.0,-999.0,46,0.00,,,0.00,Wunderground v.1.15,2013-12-25 17:35:00,
2013-12-25 12:40:00,19.2,1.3,30.43,East,90,0.0,-999.0,45,0.00,,,0.00,Wunderground v.1.15,2013-12-25 17:40:00,
2013-12-25 12:45:00,19.2,2.2,30.43,NE,45,0.0,-999.0,47,0.00,,,0.00,Wunderground v.1.15,2013-12-25 17:45:00,
2013-12-25 12:50:00,19.2,1.3,30.43,ENE,68,0.0,-999.0,45,0.00,,,0.00,Wunderground v.1.15,2013-12-25 17:50:00,
2013-12-25 12:55:00,19.2,1.8,30.43,NNE,23,0.0,-999.0,46,0.00,,,0.00,Wunderground v.1.15,2013-12-25 17:55:00,
2013-12-25 13:00:00,19.2,1.3,30.44,East,90,0.0,-999.0,45,0.00,,,0.00,Wunderground v.1.15,2013-12-25 18:00:00,
2013-12-25 13:05:00,19.2,1.3,30.44,SSE,158,0.0,-999.0,45,0.00,,,0.00,Wunderground v.1.15,2013-12-25 18:05:00,
2013-12-25 13:10:00,19.2,0.8,30.44,SE,135,0.0,-999.0,44,0.00,,,0.00,Wunderground v.1.15,2013-12-25 18:10:00,
2013-12-25 13:15:00,19.2,2.2,30.44,N/A,-737280,0.0,-999.0,47,0.00,,,0.00,Wunderground v.1.15,2013-12-25 18:15:00,
2013-12-25 13:20:00,19.4,2.0,30.44,N/A,-737280,0.0,-999.0,46,0.00,,,0.00,Wunderground v.1.15,2013-12-25 18:20:00,
2013-12-25 13:25:00,19.4,1.0,30.44,SE,135,0.0,-999.0,44,0.00,,,0.00,Wunderground v.1.15,2013-12-25 18:25:00,
2013-12-25 13:30:00,19.4,2.9,30.44,SE,135,0.0,-999.0,48,0.00,,,0.00,Wunderground v.1.15,2013-12-25 18:30:00,
2013-12-25 13:35:00,19.4,1.5,30.44,SE,135,0.0,-999.0,45,0.00,,,0.00,Wunderground v.1.15,2013-12-25 18:35:00,
2013-12-25 13:40:00,19.4,1.0,30.44,SE,135,0.0,-999.0,44,0.00,,,0.00,Wunderground v.1.15,2013-12-25 18:40:00,
2013-12-25 13:45:00,19.4,1.0,30.44,West,270,0.0,-999.0,44,0.00,,,0.00,Wunderground v.1.15,2013-12-25 18:45:00,
2013-12-25 13:50:00,19.4,1.0,30.44,NW,315,0.0,-999.0,44,0.00,,,0.00,Wunderground v.1.15,2013-12-25 18:50:00,
2013-12-25 13:55:00,19.4,1.5,30.44,N/A,-737280,0.0,-999.0,45,0.00,,,0.00,Wunderground v.1.15,2013-12-25 18:55:00,
2013-12-25 14:00:00,19.4,1.5,30.44,WNW,293,0.0,-999.0,45,0.00,,,0.00,Wunderground v.1.15,2013-12-25 19:00:00,
2013-12-25 14:05:00,19.4,2.4,30.44,N/A,-737280,0.0,-999.0,47,0.00,,,0.00,Wunderground v.1.15,2013-12-25 19:05:00,
2013-12-25 14:10:00,19.4,2.4,30.44,North,0,0.0,-999.0,47,0.00,,,0.00,Wunderground v.1.15,2013-12-25 19:10:00,
2013-12-25 14:15:00,19.5,1.1,30.43,NNW,338,0.0,-999.0,44,0.00,,,0.00,Wunderground v.1.15,2013-12-25 19:15:00,
2013-12-25 14:20:00,19.5,2.5,30.43,West,270,0.0,-999.0,47,0.00,,,0.00,Wunderground v.1.15,2013-12-25 19:20:00,
2013-12-25 14:25:00,19.5,3.9,30.43,West,270,0.0,-999.0,50,0.00,,,0.00,Wunderground v.1.15,2013-12-25 19:25:00,
2013-12-25 14:30:00,19.5,1.1,30.44,N/A,-737280,0.0,-999.0,44,0.00,,,0.00,Wunderground v.1.15,2013-12-25 19:30:00,
2013-12-25 14:35:00,19.7,1.3,30.44,N/A,-737280,0.0,-999.0,44,0.00,,,0.00,Wunderground v.1.15,2013-12-25 19:35:00,
2013-12-25 14:40:00,19.7,2.7,30.44,N/A,-737280,0.0,-999.0,47,0.00,,,0.00,Wunderground v.1.15,2013-12-25 19:40:00,
2013-12-25 14:45:00,19.7,2.2,30.44,N/A,-737280,0.0,-999.0,46,0.00,,,0.00,Wunderground v.1.15,2013-12-25 19:45:00,
2013-12-25 14:50:00,19.7,2.2,30.44,N/A,-737280,0.0,-999.0,46,0.00,,,0.00,Wunderground v.1.15,2013-12-25 19:50:00,
2013-12-25 14:55:00,19.7,4.0,30.44,N/A,-737280,0.0,-999.0,50,0.00,,,0.00,Wunderground v.1.15,2013-12-25 19:55:00,
2013-12-25 15:00:00,19.7,4.0,30.45,N/A,-737280,0.0,-999.0,50,0.00,,,0.00,Wunderground v.1.15,2013-12-25 20:00:00,
2013-12-25 15:05:00,19.7,3.6,30.45,N/A,-737280,0.0,-999.0,49,0.00,,,0.00,Wunderground v.1.15,2013-12-25 20:05:00,
2013-12-25 15:10:00,19.5,3.9,30.45,N/A,-737280,0.0,-999.0,50,0.00,,,0.00,Wunderground v.1.15,2013-12-25 20:10:00,
2013-12-25 15:15:00,19.5,2.5,30.45,N/A,-737280,0.0,-999.0,47,0.00,,,0.00,Wunderground v.1.15,2013-12-25 20:15:00,
2013-12-25 15:20:00,19.4,2.0,30.45,N/A,-737280,0.0,-999.0,46,0.00,,,0.00,Wunderground v.1.15,2013-12-25 20:20:00,
2013-12-25 15:25:00,19.4,1.5,30.45,N/A,-737280,0.0,-999.0,45,0.00,,,0.00,Wunderground v.1.15,2013-12-25 20:25:00,
2013-12-25 15:30:00,19.2,1.3,30.46,N/A,-737280,0.0,-999.0,45,0.00,,,0.00,Wunderground v.1.15,2013-12-25 20:30:00,
2013-12-25 15:35:00,-999.9,-99.9,30.46,N/A,-737280,0.0,-999.0,45,0.00,,,0.00,Wunderground v.1.15,2013-12-25 20:35:00,
2013-12-25 15:40:00,-999.9,-99.9,30.46,N/A,-737280,0.0,-999.0,45,0.00,,,0.00,Wunderground v.1.15,2013-12-25 20:40:00,
2013-12-25 15:45:00,19.1,1.2,30.48,N/A,-737280,0.0,-999.0,45,0.00,,,0.00,Wunderground v.1.15,2013-12-25 20:45:00,
2013-12-25 15:50:00,18.9,1.0,30.48,N/A,-737280,0.0,-999.0,45,0.00,,,0.00,Wunderground v.1.15,2013-12-25 20:50:00,
2013-12-25 15:55:00,-999.9,-99.9,30.48,N/A,-737280,0.0,-999.0,45,0.00,,,0.00,Wunderground v.1.15,2013-12-25 20:55:00,
2013-12-25 16:00:00,-999.9,-99.9,30.49,N/A,-737280,0.0,-999.0,45,0.00,,,0.00,Wunderground v.1.15,2013-12-25 21:00:00,
2013-12-25 16:05:00,18.6,0.7,30.49,N/A,-737280,0.0,-999.0,45,0.00,,,0.00,Wunderground v.1.15,2013-12-25 21:05:00,
2013-12-25 16:10:00,-999.9,-99.9,30.49,N/A,-737280,0.0,-999.0,45,0.00,,,0.00,Wunderground v.1.15,2013-12-25 21:10:00,
2013-12-25 16:15:00,-999.9,-99.9,30.48,N/A,-737280,0.0,-999.0,45,0.00,,,0.00,Wunderground v.1.15,2013-12-25 21:15:00,
2013-12-25 16:20:00,-999.9,-99.9,30.48,N/A,-737280,0.0,-999.0,45,0.00,,,0.00,Wunderground v.1.15,2013-12-25 21:20:00,
2013-12-25 16:25:00,17.8,0.0,30.48,N/A,-737280,0.0,-999.0,45,0.00,,,0.00,Wunderground v.1.15,2013-12-25 21:25:00,
2013-12-25 16:30:00,17.8,0.0,30.49,N/A,-737280,0.0,-999.0,45,0.00,,,0.00,Wunderground v.1.15,2013-12-25 21:30:00,
2013-12-25 16:35:00,-999.9,-99.9,30.49,N/A,-737280,0.0,-999.0,45,0.00,,,0.00,Wunderground v.1.15,2013-12-25 21:35:00,
2013-12-25 16:40:00,-999.9,-99.9,30.49,N/A,-737280,0.0,-999.0,45,0.00,,,0.00,Wunderground v.1.15,2013-12-25 21:40:00,
2013-12-25 16:45:00,17.0,-0.7,30.50,N/A,-737280,0.0,-999.0,45,0.00,,,0.00,Wunderground v.1.15,2013-12-25 21:45:00,
2013-12-25 16:50:00,16.9,-0.8,30.50,N/A,-737280,0.0,-999.0,45,0.00,,,0.00,Wunderground v.1.15,2013-12-25 21:50:00,
2013-12-25 16:55:00,16.7,-1.0,30.50,N/A,-737280,0.0,-999.0,45,0.00,,,0.00,Wunderground v.1.15,2013-12-25 21:55:00,
2013-12-25 17:00:00,16.7,5.9,30.49,N/A,-737280,0.0,-999.0,62,0.00,,,0.00,Wunderground v.1.15,2013-12-25 22:00:00,
2013-12-25 17:05:00,-999.9,-99.9,30.49,N/A,-737280,0.0,-999.0,62,0.00,,,0.00,Wunderground v.1.15,2013-12-25 22:05:00,
2013-12-25 17:10:00,16.4,5.6,30.49,N/A,-737280,0.0,-999.0,62,0.00,,,0.00,Wunderground v.1.15,2013-12-25 22:10:00,
2013-12-25 17:15:00,16.4,5.3,30.50,N/A,-737280,0.0,-999.0,61,0.00,,,0.00,Wunderground v.1.15,2013-12-25 22:15:00,
2013-12-25 17:20:00,16.2,5.1,30.50,N/A,-737280,0.0,-999.0,61,0.00,,,0.00,Wunderground v.1.15,2013-12-25 22:20:00,
2013-12-25 17:25:00,16.2,5.5,30.50,N/A,-737280,0.0,-999.0,62,0.00,,,0.00,Wunderground v.1.15,2013-12-25 22:25:00,
2013-12-25 17:30:00,16.1,5.4,30.51,N/A,-737280,0.0,-999.0,62,0.00,,,0.00,Wunderground v.1.15,2013-12-25 22:30:00,
2013-12-25 17:35:00,16.1,6.1,30.51,N/A,-737280,0.0,-999.0,64,0.00,,,0.00,Wunderground v.1.15,2013-12-25 22:35:00,
2013-12-25 17:40:00,16.1,6.4,30.51,N/A,-737280,0.0,-999.0,65,0.00,,,0.00,Wunderground v.1.15,2013-12-25 22:40:00,
2013-12-25 17:45:00,-999.9,-99.9,30.50,N/A,-737280,0.0,-999.0,65,0.00,,,0.00,Wunderground v.1.15,2013-12-25 22:45:00,
2013-12-25 17:50:00,16.1,6.7,30.50,N/A,-737280,0.0,-999.0,66,0.00,,,0.00,Wunderground v.1.15,2013-12-25 22:50:00,
2013-12-25 17:55:00,-999.9,-99.9,30.50,N/A,-737280,0.0,-999.0,66,0.00,,,0.00,Wunderground v.1.15,2013-12-25 22:55:00,
2013-12-25 18:00:00,-999.9,-99.9,30.49,N/A,-737280,0.0,-999.0,66,0.00,,,0.00,Wunderground v.1.15,2013-12-25 23:00:00,
2013-12-25 18:05:00,16.2,6.8,30.49,N/A,-737280,0.0,-999.0,66,0.00,,,0.00,Wunderground v.1.15,2013-12-25 23:05:00,
2013-12-25 18:10:00,16.2,6.8,30.49,N/A,-737280,0.0,-999.0,66,0.00,,,0.00,Wunderground v.1.15,2013-12-25 23:10:00,
2013-12-25 18:15:00,16.2,6.5,30.49,N/A,-737280,0.0,-999.0,65,0.00,,,0.00,Wunderground v.1.15,2013-12-25 23:15:00,
2013-12-25 18:20:00,16.2,6.5,30.49,N/A,-737280,0.0,-999.0,65,0.00,,,0.00,Wunderground v.1.15,2013-12-25 23:20:00,
2013-12-25 18:25:00,16.4,6.7,30.49,N/A,-737280,0.0,-999.0,65,0.00,,,0.00,Wunderground v.1.15,2013-12-25 23:25:00,
2013-12-25 18:30:00,16.4,6.7,30.50,N/A,-737280,0.0,-999.0,65,0.00,,,0.00,Wunderground v.1.15,2013-12-25 23:30:00,
2013-12-25 18:35:00,-999.9,-99.9,30.50,N/A,-737280,0.0,-999.0,65,0.00,,,0.00,Wunderground v.1.15,2013-12-25 23:35:00,
2013-12-25 18:40:00,-999.9,-99.9,30.50,N/A,-737280,0.0,-999.0,65,0.00,,,0.00,Wunderground v.1.15,2013-12-25 23:40:00,
2013-12-25 18:45:00,-999.9,-99.9,30.50,N/A,-737280,0.0,-999.0,65,0.00,,,0.00,Wunderground v.1.15,2013-12-25 23:45:00,
2013-12-25 18:50:00,16.4,6.7,30.50,N/A,-737280,0.0,-999.0,65,0.00,,,0.00,Wunderground v.1.15,2013-12-25 23:50:00,
2013-12-25 18:55:00,16.4,7.3,30.50,N/A,-737280,0.0,-999.0,67,0.00,,,0.00,Wunderground v.1.15,2013-12-25 23:55:00,
2013-12-25 19:00:00,16.4,7.7,30.51,N/A,-737280,0.0,-999.0,68,0.00,,,0.00,Wunderground v.1.15,2013-12-26 00:00:00,
2013-12-25 19:05:00,16.5,8.1,30.51,N/A,-737280,0.0,-999.0,69,0.00,,,0.00,Wunderground v.1.15,2013-12-26 00:05:00,
2013-12-25 19:10:00,16.5,8.1,30.51,N/A,-737280,0.0,-999.0,69,0.00,,,0.00,Wunderground v.1.15,2013-12-26 00:10:00,
2013-12-25 19:15:00,16.5,8.7,30.51,N/A,-737280,0.0,-999.0,71,0.00,,,0.00,Wunderground v.1.15,2013-12-26 00:15:00,
2013-12-25 19:20:00,16.5,8.4,30.51,N/A,-737280,0.0,-999.0,70,0.00,,,0.00,Wunderground v.1.15,2013-12-26 00:20:00,
2013-12-25 19:25:00,16.5,8.7,30.51,N/A,-737280,0.0,-999.0,71,0.00,,,0.00,Wunderground v.1.15,2013-12-26 00:25:00,
2013-12-25 19:30:00,16.5,8.4,30.51,N/A,-737280,0.0,-999.0,70,0.00,,,0.00,Wunderground v.1.15,2013-12-26 00:30:00,
2013-12-25 19:35:00,16.5,8.4,30.51,N/A,-737280,0.0,-999.0,70,0.00,,,0.00,Wunderground v.1.15,2013-12-26 00:35:00,
2013-12-25 19:40:00,16.5,8.1,30.51,N/A,-737280,0.0,-999.0,69,0.00,,,0.00,Wunderground v.1.15,2013-12-26 00:40:00,
2013-12-25 19:45:00,16.5,8.1,30.51,N/A,-737280,0.0,-999.0,69,0.00,,,0.00,Wunderground v.1.15,2013-12-26 00:45:00,
2013-12-25 19:50:00,16.5,8.1,30.51,N/A,-737280,0.0,-999.0,69,0.00,,,0.00,Wunderground v.1.15,2013-12-26 00:50:00,
2013-12-25 19:55:00,16.4,7.7,30.51,N/A,-737280,0.0,-999.0,68,0.00,,,0.00,Wunderground v.1.15,2013-12-26 00:55:00,
2013-12-25 20:00:00,16.4,7.7,30.50,N/A,-737280,0.0,-999.0,68,0.00,,,0.00,Wunderground v.1.15,2013-12-26 01:00:00,
2013-12-25 20:05:00,16.2,7.5,30.50,N/A,-737280,0.0,-999.0,68,0.00,,,0.00,Wunderground v.1.15,2013-12-26 01:05:00,
2013-12-25 20:10:00,16.1,7.4,30.50,N/A,-737280,0.0,-999.0,68,0.00,,,0.00,Wunderground v.1.15,2013-12-26 01:10:00,
2013-12-25 20:15:00,15.9,7.2,30.50,N/A,-737280,0.0,-999.0,68,0.00,,,0.00,Wunderground v.1.15,2013-12-26 01:15:00,
2013-12-25 20:20:00,15.7,7.0,30.50,N/A,-737280,0.0,-999.0,68,0.00,,,0.00,Wunderground v.1.15,2013-12-26 01:20:00,
2013-12-25 20:25:00,15.6,7.2,30.50,N/A,-737280,0.0,-999.0,69,0.00,,,0.00,Wunderground v.1.15,2013-12-26 01:25:00,
2013-12-25 20:30:00,15.4,7.0,30.51,N/A,-737280,0.0,-999.0,69,0.00,,,0.00,Wunderground v.1.15,2013-12-26 01:30:00,
2013-12-25 20:35:00,15.2,7.5,30.51,N/A,-737280,0.0,-999.0,71,0.00,,,0.00,Wunderground v.1.15,2013-12-26 01:35:00,
2013-12-25 20:40:00,14.9,7.2,30.51,N/A,-737280,0.0,-999.0,71,0.00,,,0.00,Wunderground v.1.15,2013-12-26 01:40:00,
2013-12-25 20:45:00,14.8,7.1,30.50,N/A,-737280,0.0,-999.0,71,0.00,,,0.00,Wunderground v.1.15,2013-12-26 01:45:00,
2013-12-25 20:50:00,14.8,7.1,30.50,N/A,-737280,0.0,-999.0,71,0.00,,,0.00,Wunderground v.1.15,2013-12-26 01:50:00,
2013-12-25 20:55:00,14.6,6.9,30.50,N/A,-737280,0.0,-999.0,71,0.00,,,0.00,Wunderground v.1.15,2013-12-26 01:55:00,
2013-12-25 21:00:00,14.4,7.0,30.50,N/A,-737280,0.0,-999.0,72,0.00,,,0.00,Wunderground v.1.15,2013-12-26 02:00:00,
2013-12-25 21:05:00,14.3,6.9,30.50,N/A,-737280,0.0,-999.0,72,0.00,,,0.00,Wunderground v.1.15,2013-12-26 02:05:00,
2013-12-25 21:10:00,14.3,6.9,30.50,N/A,-737280,0.0,-999.0,72,0.00,,,0.00,Wunderground v.1.15,2013-12-26 02:10:00,
2013-12-25 21:15:00,14.1,7.0,30.50,N/A,-737280,0.0,-999.0,73,0.00,,,0.00,Wunderground v.1.15,2013-12-26 02:15:00,
2013-12-25 21:20:00,14.1,7.3,30.50,N/A,-737280,0.0,-999.0,74,0.00,,,0.00,Wunderground v.1.15,2013-12-26 02:20:00,
2013-12-25 21:25:00,14.1,7.3,30.50,N/A,-737280,0.0,-999.0,74,0.00,,,0.00,Wunderground v.1.15,2013-12-26 02:25:00,
2013-12-25 21:30:00,14.1,7.9,30.50,N/A,-737280,0.0,-999.0,76,0.00,,,0.00,Wunderground v.1.15,2013-12-26 02:30:00,
2013-12-25 21:35:00,-999.9,-99.9,30.50,N/A,-737280,0.0,-999.0,76,0.00,,,0.00,Wunderground v.1.15,2013-12-26 02:35:00,
2013-12-25 21:40:00,14.0,7.8,30.50,N/A,-737280,0.0,-999.0,76,0.00,,,0.00,Wunderground v.1.15,2013-12-26 02:40:00,
2013-12-25 21:45:00,14.0,8.1,30.50,N/A,-737280,0.0,-999.0,77,0.00,,,0.00,Wunderground v.1.15,2013-12-26 02:45:00,
2013-12-25 21:50:00,14.0,8.1,30.50,N/A,-737280,0.0,-999.0,77,0.00,,,0.00,Wunderground v.1.15,2013-12-26 02:50:00,
2013-12-25 21:55:00,14.0,8.1,30.50,N/A,-737280,0.0,-999.0,77,0.00,,,0.00,Wunderground v.1.15,2013-12-26 02:55:00,
2013-12-25 22:00:00,-999.9,-99.9,30.50,N/A,-737280,0.0,-999.0,77,0.00,,,0.00,Wunderground v.1.15,2013-12-26 03:00:00,
2013-12-25 22:05:00,-999.9,-99.9,30.50,N/A,-737280,0.0,-999.0,77,0.00,,,0.00,Wunderground v.1.15,2013-12-26 03:05:00,
2013-12-25 22:10:00,-999.9,-99.9,30.50,N/A,-737280,0.0,-999.0,77,0.00,,,0.00,Wunderground v.1.15,2013-12-26 03:10:00,
2013-12-25 22:15:00,-999.9,-99.9,30.49,N/A,-737280,0.0,-999.0,77,0.00,,,0.00,Wunderground v.1.15,2013-12-26 03:15:00,
2013-12-25 22:20:00,-999.9,-99.9,30.49,N/A,-737280,0.0,-999.0,77,0.00,,,0.00,Wunderground v.1.15,2013-12-26 03:20:00,
2013-12-25 22:25:00,-999.9,-99.9,30.49,N/A,-737280,0.0,-999.0,77,0.00,,,0.00,Wunderground v.1.15,2013-12-26 03:25:00,
2013-12-25 22:30:00,-999.9,-99.9,30.49,N/A,-737280,0.0,-999.0,77,0.00,,,0.00,Wunderground v.1.15,2013-12-26 03:30:00,
2013-12-25 22:35:00,-999.9,-99.9,30.49,N/A,-737280,0.0,-999.0,77,0.00,,,0.00,Wunderground v.1.15,2013-12-26 03:35:00,
2013-12-25 22:40:00,-999.9,-99.9,30.49,N/A,-737280,0.0,-999.0,77,0.00,,,0.00,Wunderground v.1.15,2013-12-26 03:40:00,
2013-12-25 22:45:00,-999.9,-99.9,30.49,N/A,-737280,0.0,-999.0,77,0.00,,,0.00,Wunderground v.1.15,2013-12-26 03:45:00,
2013-12-25 22:50:00,-999.9,-99.9,30.49,N/A,-737280,0.0,-999.0,-32768,0.00,,,0.00,Wunderground v.1.15,2013-12-26 03:50:00,
2013-12-25 22:55:00,-999.9,-99.9,30.49,N/A,-737280,0.0,-999.0,-32768,0.00,,,0.00,Wunderground v.1.15,2013-12-26 03:55:00,
2013-12-25 23:00:00,-999.9,-99.9,30.48,N/A,-737280,0.0,-999.0,-32768,0.00,,,0.00,Wunderground v.1.15,2013-12-26 04:00:00,
2013-12-25 23:05:00,-999.9,-99.9,30.48,N/A,-737280,0.0,-999.0,-32768,0.00,,,0.00,Wunderground v.1.15,2013-12-26 04:05:00,
2013-12-25 23:10:00,-999.9,-99.9,30.48,N/A,-737280,0.0,-999.0,-32768,0.00,,,0.00,Wunderground v.1.15,2013-12-26 04:10:00,
2013-12-25 23:15:00,-999.9,-99.9,30.47,N/A,-737280,0.0,-999.0,-32768,0.00,,,0.00,Wunderground v.1.15,2013-12-26 04:15:00,
2013-12-25 23:20:00,-999.9,-99.9,30.47,N/A,-737280,0.0,-999.0,-32768,0.00,,,0.00,Wunderground v.1.15,2013-12-26 04:20:00,
2013-12-25 23:25:00,12.1,-99.9,30.47,N/A,-737280,0.0,-999.0,-32768,0.00,,,0.00,Wunderground v.1.15,2013-12-26 04:25:00,
2013-12-25 23:30:00,11.9,6.6,30.48,N/A,-737280,0.0,-999.0,79,0.00,,,0.00,Wunderground v.1.15,2013-12-26 04:30:00,
2013-12-25 23:35:00,11.9,6.6,30.48,N/A,-737280,0.0,-999.0,79,0.00,,,0.00,Wunderground v.1.15,2013-12-26 04:35:00,
2013-12-25 23:40:00,11.9,6.9,30.48,N/A,-737280,0.0,-999.0,80,0.00,,,0.00,Wunderground v.1.15,2013-12-26 04:40:00,
2013-12-25 23:45:00,11.9,6.9,30.47,N/A,-737280,0.0,-999.0,80,0.00,,,0.00,Wunderground v.1.15,2013-12-26 04:45:00,
2013-12-25 23:50:00,11.7,6.7,30.47,N/A,-737280,0.0,-999.0,80,0.00,,,0.00,Wunderground v.1.15,2013-12-26 04:50:00,
2013-12-25 23:55:00,11.7,6.7,30.47,N/A,-737280,0.0,-999.0,80,0.00,,,0.00,Wunderground v.1.15,2013-12-26 04:55:00,